Terminal Aerodrome Forecast
Issued by NWS

Home | Current Version | Previous Version | Text Only | Print | Product List | Glossary On
Versions: 1 2 3 4 5 6 7 8 9 10 11 12 13 14 15 16
000
FTUS45 KVEF 010700 AAA
TAFVGT
TAF AMD
KVGT 010700Z 0107/0206 06010KT P6SM SCT250
     FM011000 VRB05KT P6SM SCT250
     FM011800 13008KT P6SM FEW120 SCT250=

USA.gov is the U.S. government's official web portal to all federal, state and local government web resources and services.